Regional Weather Roundup
Issued by NWS

Home | Current Version | Previous Version | Graphics & Text | Print | Product List | Glossary On
Versions: 1 2 3 4 5 6 7 8 9 10 11 12 13 14 15 16 17 18 19 20 21 22 23 24 25 26 27 28 29 30 31 32 33 34 35 36 37 38 39 40 41 42 43 44 45 46 47 48 49 50
000
ASUS45 KSLC 280710
RWRUT

UTAH REGIONAL WEATHER ROUNDUP
NATIONAL WEATHER SERVICE SALT LAKE CITY UT
1200 AM MST WED JAN 28 2015

UTZ001>011-023>025-280800-

NORTHERN UTAH

CITY           SKY/WX    TMP DP  RH WIND       PRES   REMARKS
BRIGHAM CITY   CLOUDY    42  38  87 NW8       30.17R
HILL AFB       CLOUDY    41  38  87 S8        30.17R
LOGAN          CLOUDY    36  34  92 NE5       30.17R FOG     WCI  32
OGDEN          CLOUDY    42  40  92 S7        30.17R
PROVO AIRPORT  MOCLDY    39  34  81 CALM      30.21S
SALT LAKE CITY MOCLDY    40  35  83 S3        30.17R
VERNAL         CLOUDY    34  27  75 CALM      30.23S
WENDOVER       CLOUDY    36  30  80 SW3       30.19R
HEBER CITY     CLOUDY    43  30  61 SW8       30.20R
WEST JORDAN    PTCLDY    46  36  66 S13       30.18R

$$

UTZ012>022-026-027-280800-

SOUTHERN/CENTRAL UTAH

CITY           SKY/WX    TMP DP  RH WIND       PRES   REMARKS
BLANDING       PTCLDY    36  32  84 CALM      30.34S
BRYCE CANYON   CLOUDY    28  27  96 SW5       30.32R WCI  23
CEDAR CITY     CLEAR     32  31  96 CALM      30.27R
DELTA          MOCLDY    42  34  73 S12       30.22S
MILFORD        MOCLDY    36  33  89 S14       30.25R WCI  27
MOAB/CYNLANDS  CLEAR     32  30  92 CALM      30.23S
PRICE          PTCLDY    36  27  69 SE6       30.23F WCI  31
ST GEORGE      PTSUNNY   46  39  76 SE3       30.28S
KANAB            N/A     34  34 100 N7        30.33R WCI  28

$$

REGIONAL REPORTS     COLORADO/ARIZONA

CITY           SKY/WX    TMP DP  RH WIND       PRES   REMARKS
CRAIG, CO      CLOUDY    34  31  88 CALM      30.23S
GRAND JUNCTION CLEAR     34  27  75 E7        30.24S WCI  28
RIFLE          PTCLDY    33  27  78 S3        30.25S
MONTROSE       PTCLDY    32  24  72 SE7       30.29S WCI  26
CORTEZ         CLOUDY    37  31  78 NE6       30.28F WCI  32
PAGE, AZ       NOT AVBL
GRAND CANYON   PTCLDY    27  25  92 CALM      30.33R
KINGMAN        CLEAR     43  40  89 S5        30.26R
FLAGSTAFF      PTCLDY    30  27  88 CALM      30.32S

$$

REGIONAL REPORTS    NEVADA/IDAHO/WYOMING

CITY           SKY/WX    TMP DP  RH WIND       PRES   REMARKS
LAS VEGAS, NV  PTCLDY    53  46  77 SW6       30.21R
ELY            CLOUDY    37  34  89 S12       30.24R WCI  29
ELKO           CLOUDY    38  36  92 S6        30.22R WCI  33
POCATELLO, ID  CLOUDY    40  37  89 W8        30.15R WCI  34
BURLEY         LGT RAIN  41  39  93 SW6       30.15R
EVANSTON, WY   FLURRIES  35  30  82 W7        30.20R WCI  29
ROCK SPRINGS   PTCLDY    34  27  75 W7        30.16S WCI  28
KEMMERER       LGT SNOW  32  30  93 W6        30.18S WCI  26

$$


USA.gov is the U.S. government's official web portal to all federal, state and local government web resources and services.